Weather History for Fredericksburg, TX

Change the Weather History Date:

Monday, August 26, 2013

  Actual Average (KSAT) Record (KSAT)
Temperature  
Mean Temperature 80 °F 85 °F  
Max Temperature 89 °F 95 °F 102 °F (2006)
Min Temperature 72 °F 74 °F 61 °F (1891)
Degree Days  
Heating Degree Days 0 0  
Month to date heating degree days 0  
Since 1 June heating degree days 0  
Since 1 July heating degree days 0  
Cooling Degree Days 15 20  
Month to date cooling degree days 539  
Year to date cooling degree days 2299  
Since 1 June cooling degree days 1670  
Growing Degree Days 30 (Base 50)    
Moisture  
Dew Point 67 °F    
Average Humidity 70    
Maximum Humidity 91    
Minimum Humidity 41    
Precipitation  
Precipitation 0.00 in 0.09 in 4.42 in (1948)
Month to date precipitation 1.57  
Year to date precipitation 20.42  
Snow  
Snow 0.00 in - - ()
Month to date snowfall  
Since 1 June snowfall  
Since 1 July snowfall  
Snow Depth -    
Sea Level Pressure  
Sea Level Pressure 30.12 in    
Wind  
Wind Speed 5 mph (East)    
Max Wind Speed 13 mph    
Max Gust Speed 20 mph    
Visibility 10 miles    
Events      
T = Trace of Precipitation, MM = Missing Value Source: NWS Daily Summary

Daily Weather History Graph

Daily Weather History Graph

Search for Another Location

Airport:

Trip Planner

Search our weather history database for the weather conditions in past years. The results will help you decide how hot, cold, wet, or windy it might be!

Date:

Astronomy

Aug. 26, 2013 Rise Set
Actual Time 7:09 AM CDT 8:04 PM CDT
Civil Twilight 6:44 AM CDT 8:29 PM CDT
Nautical Twilight 6:15 AM CDT 8:58 PM CDT
Astronomical Twilight 5:45 AM CDT 9:28 PM CDT
Moon 11:46 PM CDT (8/26) 12:43 PM CDT (8/26)
Length of Visible Light 13h 44m
Length of Day
12h 55m
Waning Gibbous, 66% of the Moon is Illuminated
Aug 26
Waning Gibbous
Aug 28
Last Quarter
Sep 5
New
Sep 12
First Quarter
Sep 19
Full

Hourly Weather History & Observations

Time (CDT) Temp. Heat Index Dew Point Humidity Pressure Visibility Wind Dir Wind Speed Gust Speed Precip Events Conditions
12:15 AM 77.9 °F - 66.4 °F 68% 30.14 in 10.0 mi Calm Calm - N/A   Clear
12:35 AM 77.5 °F - 66.6 °F 69% 30.14 in 10.0 mi East 3.5 mph - N/A   Clear
12:55 AM 77.0 °F - 66.6 °F 70% 30.13 in 10.0 mi Calm Calm - N/A   Clear
1:15 AM 76.6 °F - 66.6 °F 71% 30.13 in 10.0 mi East 4.6 mph - N/A   Clear
1:35 AM 76.3 °F - 66.4 °F 71% 30.13 in 10.0 mi East 4.6 mph - N/A   Clear
1:55 AM 75.7 °F - 66.2 °F 72% 30.12 in 10.0 mi East 4.6 mph - N/A   Clear
2:15 AM 75.0 °F - 65.7 °F 73% 30.12 in 10.0 mi ENE 4.6 mph - N/A   Clear
2:35 AM 74.7 °F - 65.7 °F 73% 30.12 in 10.0 mi East 3.5 mph - N/A   Clear
2:55 AM 74.1 °F - 65.7 °F 75% 30.12 in 10.0 mi ENE 3.5 mph - N/A   Clear
3:15 AM 73.6 °F - 65.7 °F 76% 30.12 in 10.0 mi East 3.5 mph - N/A   Clear
3:35 AM 73.4 °F - 65.8 °F 77% 30.12 in 10.0 mi Calm Calm - N/A   Clear
3:55 AM 72.7 °F - 66.0 °F 80% 30.12 in 10.0 mi Calm Calm - N/A   Scattered Clouds
4:15 AM 73.0 °F - 66.4 °F 80% 30.12 in 10.0 mi Calm Calm - N/A   Mostly Cloudy
4:35 AM 72.3 °F - 66.4 °F 82% 30.12 in 10.0 mi Calm Calm - N/A   Scattered Clouds
4:55 AM 72.9 °F - 66.7 °F 81% 30.12 in 10.0 mi Calm Calm - N/A   Mostly Cloudy
5:15 AM 72.9 °F - 67.1 °F 82% 30.12 in 10.0 mi Calm Calm - N/A   Mostly Cloudy
5:35 AM 72.9 °F - 67.3 °F 83% 30.12 in 10.0 mi NE 4.6 mph - N/A   Mostly Cloudy
5:55 AM 73.0 °F - 67.6 °F 83% 30.12 in 10.0 mi ENE 4.6 mph - N/A   Overcast
6:15 AM 73.4 °F - 68.0 °F 83% 30.13 in 10.0 mi ENE 4.6 mph - N/A   Overcast
6:35 AM 73.4 °F - 68.0 °F 83% 30.13 in 10.0 mi ENE 3.5 mph - N/A   Overcast
6:55 AM 73.4 °F - 68.0 °F 83% 30.14 in 10.0 mi ENE 4.6 mph - N/A   Overcast
7:15 AM 73.4 °F - 68.0 °F 83% 30.14 in 10.0 mi East 5.8 mph - N/A   Overcast
7:35 AM 73.4 °F - 68.2 °F 84% 30.14 in 10.0 mi East 4.6 mph - N/A   Mostly Cloudy
7:55 AM 73.8 °F - 68.4 °F 83% 30.14 in 10.0 mi East 8.1 mph - N/A   Overcast
8:15 AM 73.9 °F - 68.5 °F 83% 30.15 in 10.0 mi East 9.2 mph - N/A   Overcast
8:35 AM 74.7 °F - 68.9 °F 82% 30.15 in 10.0 mi ENE 8.1 mph - N/A   Overcast
8:55 AM 74.7 °F - 68.5 °F 81% 30.16 in 10.0 mi ENE 6.9 mph - N/A   Overcast
9:15 AM 75.2 °F - 68.9 °F 81% 30.16 in 10.0 mi East 8.1 mph - N/A   Overcast
9:35 AM 75.4 °F - 68.9 °F 80% 30.16 in 10.0 mi ENE 10.4 mph - N/A   Overcast
9:55 AM 73.6 °F - 70.2 °F 89% 30.17 in 4.0 mi East 4.6 mph - N/A   Light Drizzle
10:15 AM 73.4 °F - 70.5 °F 91% 30.17 in 7.0 mi East 5.8 mph - N/A   Overcast
10:35 AM 74.3 °F - 70.7 °F 88% 30.17 in 10.0 mi East 8.1 mph - N/A   Overcast
10:55 AM 77.5 °F - 69.3 °F 76% 30.17 in 10.0 mi East 9.2 mph 16.1 mph N/A   Overcast
11:15 AM 77.2 °F - 68.5 °F 75% 30.18 in 10.0 mi ENE 10.4 mph - N/A   Overcast
11:35 AM 78.3 °F - 68.4 °F 71% 30.17 in 10.0 mi East 6.9 mph - N/A   Overcast
11:55 AM 81.0 °F 83.8 °F 68.0 °F 65% 30.16 in 10.0 mi ENE 9.2 mph - N/A   Overcast
12:15 PM 80.1 °F 82.2 °F 66.4 °F 63% 30.16 in 10.0 mi East 8.1 mph 16.1 mph N/A   Overcast
12:35 PM 81.0 °F 83.2 °F 66.2 °F 61% 30.16 in 10.0 mi East 8.1 mph 16.1 mph N/A   Overcast
12:55 PM 82.4 °F 84.4 °F 65.7 °F 57% 30.15 in 10.0 mi East 9.2 mph - N/A   Overcast
1:15 PM 81.9 °F 83.7 °F 65.5 °F 57% 30.15 in 10.0 mi East 10.4 mph - N/A   Overcast
1:35 PM 82.0 °F 83.9 °F 65.7 °F 57% 30.14 in 10.0 mi East 8.1 mph 18.4 mph N/A   Overcast
1:55 PM 83.5 °F 85.3 °F 65.3 °F 54% 30.13 in 10.0 mi ESE 5.8 mph - N/A   Overcast
2:15 PM 83.7 °F 85.5 °F 65.5 °F 54% 30.13 in 10.0 mi East 10.4 mph 16.1 mph N/A   Overcast
2:35 PM 85.6 °F 87.1 °F 64.2 °F 49% 30.12 in 10.0 mi East 11.5 mph - N/A   Overcast
2:55 PM 85.1 °F 86.1 °F 63.5 °F 48% 30.11 in 10.0 mi ENE 11.5 mph 19.6 mph N/A   Overcast
3:15 PM 84.7 °F 85.9 °F 63.7 °F 49% 30.10 in 10.0 mi East 8.1 mph 16.1 mph N/A   Overcast
3:35 PM 85.6 °F 86.6 °F 63.1 °F 47% 30.09 in 10.0 mi East 8.1 mph 16.1 mph N/A   Overcast
3:55 PM 86.0 °F 86.8 °F 63.1 °F 46% 30.08 in 10.0 mi East 5.8 mph - N/A   Mostly Cloudy
4:15 PM 86.7 °F 87.3 °F 62.4 °F 44% 30.08 in 10.0 mi East 8.1 mph - N/A   Mostly Cloudy
4:35 PM 88.7 °F 89.1 °F 62.1 °F 41% 30.07 in 10.0 mi ENE 5.8 mph - N/A   Mostly Cloudy
4:55 PM 87.3 °F 87.5 °F 61.9 °F 42% 30.07 in 10.0 mi ENE 10.4 mph - N/A   Overcast
5:15 PM 87.8 °F 88.2 °F 62.1 °F 42% 30.06 in 10.0 mi East 6.9 mph 17.3 mph N/A   Overcast
5:35 PM 87.4 °F 88.0 °F 62.2 °F 43% 30.06 in 10.0 mi East 6.9 mph - N/A   Mostly Cloudy
5:55 PM 86.4 °F 87.0 °F 62.6 °F 45% 30.07 in 10.0 mi East 10.4 mph - N/A   Overcast
6:15 PM 85.3 °F 86.4 °F 63.5 °F 48% 30.07 in 10.0 mi SE 9.2 mph 17.3 mph N/A   Overcast
6:35 PM 81.9 °F 84.6 °F 67.5 °F 62% 30.08 in 10.0 mi SSE 12.7 mph 18.4 mph N/A   Overcast
6:55 PM 80.8 °F 83.5 °F 68.2 °F 65% 30.08 in 10.0 mi SSE 9.2 mph 17.3 mph N/A   Mostly Cloudy
7:15 PM 80.4 °F 83.1 °F 68.0 °F 66% 30.07 in 10.0 mi SE 5.8 mph - N/A   Scattered Clouds
7:35 PM 79.9 °F - 67.6 °F 66% 30.07 in 10.0 mi ESE 5.8 mph - N/A   Scattered Clouds
7:55 PM 79.0 °F - 67.8 °F 69% 30.08 in 10.0 mi ESE 3.5 mph - N/A   Scattered Clouds
8:15 PM 78.4 °F - 67.8 °F 70% 30.09 in 10.0 mi ESE 3.5 mph - N/A   Clear
8:35 PM 78.4 °F - 67.1 °F 68% 30.09 in 10.0 mi East 5.8 mph - N/A   Clear
8:55 PM 78.1 °F - 67.1 °F 69% 30.09 in 10.0 mi East 3.5 mph - N/A   Clear
9:15 PM 77.7 °F - 67.8 °F 71% 30.09 in 10.0 mi ESE 5.8 mph - N/A   Scattered Clouds
9:35 PM 76.6 °F - 68.0 °F 75% 30.09 in 10.0 mi East 4.6 mph - N/A   Scattered Clouds
9:55 PM 76.3 °F - 67.6 °F 74% 30.09 in 10.0 mi East 8.1 mph - N/A   Clear
10:15 PM 74.8 °F - 68.2 °F 80% 30.09 in 10.0 mi ESE 6.9 mph - N/A   Mostly Cloudy
10:35 PM 73.6 °F - 68.7 °F 85% 30.09 in 10.0 mi East 5.8 mph - N/A   Overcast
10:55 PM 73.0 °F - 68.4 °F 85% 30.10 in 10.0 mi ESE 3.5 mph - N/A   Overcast
11:15 PM 73.0 °F - 68.2 °F 85% 30.10 in 10.0 mi SE 4.6 mph - N/A   Overcast
11:35 PM 72.9 °F - 68.2 °F 85% 30.10 in 10.0 mi SE 4.6 mph - N/A   Overcast
11:55 PM 72.9 °F - 68.5 °F 86% 30.10 in 10.0 mi SE 5.8 mph - N/A   Overcast